{"data":{"norad_id":45064,"intl_designator":"2020-006W","name":"STARLINK-1133","alt_names":[],"object_type":"PAYLOAD","status":"ACTIVE","operator":null,"country":"US","launch_date":"2020-01-29","launch_site_code":"AFETR","launch_vehicle":null,"mission":null,"orbit_class":"UNKNOWN","rcs_meters":null,"size_class":null,"mass_kg":null,"dimensions":null,"purposes":["comms"],"wikipedia_slug":null,"has_3d_model":false,"image_url":null,"decayed_at":null,"tle_current":{"epoch":"2026-09-20T01:14:05.059680Z","epoch_age_seconds":53251,"freshness":"FRESH","line1":"1 45064U 20006W   26263.05144745  .00040655  00000+0  89904-3 0  9998","line2":"2 45064  53.1528  67.2470 0000621 325.6867  34.4099 15.43449912366744","mean_motion":15.43449912,"eccentricity":6.21e-5,"inclination_deg":53.1528,"raan_deg":67.247,"arg_perigee_deg":325.6867,"mean_anomaly_deg":34.4099,"bstar":0.00089904,"rev_number":36674,"period_min":93.297488231027,"perigee_km":435.51335639434,"apogee_km":436.35966432433,"semimajor_km":6814.0735103593,"source":"CELESTRAK","updated_at":"2026-09-20T09:00:38.223661Z"}}}